COSMOS 1275 DEB, 12741

Orbit data source: Space-Track

COSMOS 1275 DEB, 12741 is space debris in LEO originally from a launch on Thu, 04 Jun 1981 UTC launched from the Plesetsk Missile And Space Complex (PKMTR). Debris objects in space refer to the collection of defunct objects orbiting the Earth. Examples of debris include non-operational satellites, rocket bodies, and fragments generated from explosions, collisions, or faulty payload assembly.

Loading next visibility...
Identifier
12741, 1981-053CJ
Orbit
LEO
Country
Flag of CISCIS
Related business
Manufacturer
Unknown
Mission
Spacecraft
Bus & Motor
Unknown
Mass
Unknown
Launch date (UTC)
1981-06-04 (45 years ago)
Launch vehicle
Unknown
Launch site
Plesetsk Missile And Space Complex (PKMTR)
Object type
Payload
Rocket body
Debris
Shape & HBR
Unknown shape, 0.1 m
Radar Cross Section
Medium (>0.1 m² and <1 m²)

Expand to show TLE details & history
Last TLE update: 12 hours ago

TLE from 12 hours ago
0 COSMOS 1275 DEB
1 12741U 81053CJ  26150.41151170  .00000544  00000-0  41703-3 0  9997
2 12741  82.9465 144.4364 0067020 119.9250  33.6602 13.90508945258389
Epoch: 2026-05-30T09:52Z
TLE epoch observation values (Epoch: 2026-05-30T09:52:34.610Z)
Latitude
25.80734°
Longitude
-75.04796°
Altitude
889.335 km
Speed
7.43 km/s
True Right ascension
21h 24m 05s
True Declination
25° 40' 31"
Sunlit
Object was in daylight at epoch
Visualization orbit readout
Latitude
Unknown
Longitude
Unknown
Altitude
Unknown
Speed
Unknown
Apparent Right ascension
Unknown
Apparent Declination
Unknown
Sunlit
N/A
Visualization observer readout
Local Sidereal Time
07:01:42
Azimuth
Unknown
Elevation
Unknown
Doppler factor
Unknown
Orbital elements
Apogee altitude
972.914 km
Perigee altitude
875.036 km
Semi-major axis
7,302.112 km
Eccentricity
0.0067
Inclination
82.9465°
RAAN
144.4364°
Arg. of periapsis
119.925°
True anomaly
34.08886°
Mean anomaly
33.6602°
Eccentric anomaly
33.87423°
Mean motion
3.47833 °/min
Orbital period
103.5 mins
BSTAR
0.00041703
Loading maneuver chart data...
Computing Atmospheric mass density...
Loading historical data...
Loading historical data...
Loading historical data...
Loading historical data...
Loading historical data...
Loading historical data...
Loading historical data...

Documentation

Showing up to 5 results
|